Location: Archemont
(49.1579°N, 1.7598°E)
Time: 00:25:44
(UTC+00:00)

Vanguard 2 - Visible Passes

Search period start: 17 April 2024 00:00
Search period end: 27 April 2024 00:00
Orbit: 552 x 2917 km, 32.9° (Epoch: 16 April)

Date Brightness Start Highest point End Pass type
(mag) Time Alt. Az. Time Alt. Az. Time Alt. Az.
17 Apr 11.2 00:34:18 19° SE 00:35:38 19° SE 00:45:58 10° ESE visible
17 Apr 10.9 02:35:25 22° SSW 02:44:48 36° SSE 02:58:58 10° ESE visible
18 Apr 11.0 00:47:37 23° SSE 00:49:40 23° SE 01:01:44 10° E visible
18 Apr 10.8 02:48:43 21° SSW 02:59:09 39° SSE 03:13:43 10° ESE visible
19 Apr 10.9 01:00:52 27° SSE 01:03:45 28° SSE 01:17:03 10° E visible
19 Apr 10.7 03:01:58 20° SW 03:13:31 42° S 03:28:22 10° ESE visible
19 Apr 11.4 23:12:59 12° ESE 23:12:59 12° ESE 23:15:53 10° ESE visible
20 Apr 10.7 01:14:05 29° S 01:17:52 32° SSE 01:32:06 10° E visible
20 Apr 10.7 03:15:11 17° SW 03:27:54 44° S 03:42:56 10° ESE visible
20 Apr 11.2 23:26:10 17° SE 23:26:10 17° SE 23:32:47 10° ESE visible
21 Apr 10.6 01:27:16 31° S 01:32:03 36° SSE 01:46:57 10° E visible
21 Apr 10.7 03:28:22 14° WSW 03:42:18 45° S 03:57:23 10° ESE visible
21 Apr 11.0 23:39:19 21° SE 23:39:19 21° SE 23:48:37 10° E visible
22 Apr 10.5 01:40:24 31° SSW 01:46:17 39° SSE 02:01:40 10° ESE visible
22 Apr 10.7 03:41:30 11° WSW 03:56:40 44° S 04:11:46 10° ESE visible
22 Apr 10.8 23:52:26 26° SE 23:52:26 26° SE 00:03:55 10° E visible
23 Apr 10.5 01:53:31 30° SSW 02:00:34 42° SSE 02:16:16 10° ESE visible
23 Apr 10.7 03:55:40 10° WSW 04:11:01 43° S 04:26:01 10° SE visible
24 Apr 10.6 00:05:32 30° SSE 00:05:32 30° SSE 00:18:56 10° E visible
24 Apr 10.5 02:06:37 27° SW 02:14:52 43° S 02:30:46 10° ESE visible
24 Apr 11.3 22:17:32 11° ESE 22:17:32 11° ESE 22:18:22 10° ESE visible
25 Apr 10.4 00:18:38 34° SSE 00:19:25 34° SSE 00:33:45 10° E visible
25 Apr 10.5 02:19:43 24° SW 02:29:12 44° S 02:45:10 10° ESE visible
25 Apr 11.1 22:30:37 15° ESE 22:30:37 15° ESE 22:34:27 10° ESE visible
26 Apr 10.3 00:31:42 36° S 00:33:34 37° SSE 00:48:26 10° ESE visible
26 Apr 10.5 02:32:48 20° WSW 02:43:31 44° S 02:59:28 10° ESE visible
26 Apr 10.9 22:43:42 19° ESE 22:43:42 19° ESE 22:49:51 10° E visible
